| time (UTC) | temp F | wind direction | speed knots | gust knots | rain 1hr in | rain 24hr in | rain mn in | humidity % | barometer mb |
| 20260902060448 | 82 | 159 | 2.6 | 5.2 | 0.00 | 0.00 | 0.00 | 63 | 1017.6 |
| 20260902055936 | 82 | 171 | 0.9 | 4.3 | 0.00 | 0.00 | 0.00 | 63 | 1017.6 |
| 20260902054450 | 82 | 163 | 1.7 | 3.5 | 0.00 | 0.00 | 0.00 | 62 | 1017.6 |
| 20260902053448 | 83 | 171 | 3.5 | 5.2 | 0.00 | 0.00 | 0.00 | 62 | 1017.5 |
| 20260902052446 | 83 | 170 | 3.5 | 5.2 | 0.00 | 0.00 | 0.00 | 62 | 1017.5 |
| 20260902051446 | 83 | 177 | 1.7 | 3.5 | 0.00 | 0.00 | 0.00 | 62 | 1017.5 |
| 20260902050448 | 83 | 184 | 0.9 | 2.6 | 0.00 | 0.00 | 0.00 | 60 | 1017.4 |
| 20260902045448 | 84 | 133 | 1.7 | 2.6 | 0.00 | 0.00 | 0.00 | 59 | 1017.3 |
| 20260902044444 | 84 | 118 | 1.7 | 3.5 | 0.00 | 0.00 | 0.00 | 58 | 1017.3 |
| 20260902043442 | 85 | 128 | 1.7 | 2.6 | 0.00 | 0.00 | 0.00 | 57 | 1017.3 |
| 20260902042440 | 85 | 138 | 1.7 | 2.6 | 0.00 | 0.00 | 0.00 | 57 | 1017.4 |
| 20260902041438 | 85 | 136 | 2.6 | 5.2 | 0.00 | 0.00 | 0.00 | 57 | 1017.3 |
| 20260902040438 | 85 | 132 | 2.6 | 3.5 | 0.00 | 0.00 | 0.00 | 56 | 1017.2 |
| 20260902035438 | 86 | 140 | 2.6 | 3.5 | 0.00 | 0.00 | 0.00 | 55 | 1017.1 |
| 20260902034916 | 86 | 115 | 2.6 | 3.5 | 0.00 | 0.00 | 0.00 | 55 | 1017.2 |
| 20260902033439 | 86 | 138 | 2.6 | 4.3 | 0.00 | 0.00 | 0.00 | 54 | 1017.2 |
| 20260902032439 | 87 | 139 | 2.6 | 5.2 | 0.00 | 0.00 | 0.00 | 53 | 1017.1 |
| 20260902031437 | 87 | 134 | 3.5 | 5.2 | 0.00 | 0.00 | 0.00 | 53 | 1017.0 |
| 20260902030436 | 87 | 140 | 2.6 | 5.2 | 0.00 | 0.00 | 0.00 | 52 | 1016.8 |
| 20260902025437 | 87 | 144 | 2.6 | 4.3 | 0.00 | 0.00 | 0.00 | 51 | 1016.7 |
| 20260902024915 | 87 | 142 | 2.6 | 4.3 | 0.00 | 0.00 | 0.00 | 50 | 1016.7 |
| 20260902023436 | 88 | 135 | 2.6 | 5.2 | 0.00 | 0.00 | 0.00 | 49 | 1016.4 |
| 20260902022436 | 88 | 128 | 3.5 | 5.2 | 0.00 | 0.00 | 0.00 | 49 | 1016.3 |
| 20260902021436 | 89 | 141 | 3.5 | 6.1 | 0.00 | 0.00 | 0.00 | 48 | 1016.3 |
| 20260902020438 | 89 | 136 | 3.5 | 6.1 | 0.00 | 0.00 | 0.00 | 47 | 1016.2 |
| 20260902015434 | 89 | 144 | 3.5 | 5.2 | 0.00 | 0.00 | 0.00 | 47 | 1016.1 |
| 20260902014435 | 89 | 126 | 3.5 | 5.2 | 0.00 | 0.00 | 0.00 | 46 | 1015.9 |
| 20260902013434 | 90 | 116 | 2.6 | 3.5 | 0.00 | 0.00 | 0.00 | 45 | 1015.6 |
| 20260902012909 | 90 | 142 | 2.6 | 3.5 | 0.00 | 0.00 | 0.00 | 44 | 1015.4 |
| 20260902011436 | 91 | 140 | 2.6 | 3.5 | 0.00 | 0.00 | 0.00 | 44 | 1015.3 |
| 20260902010435 | 91 | 142 | 2.6 | 4.3 | 0.00 | 0.00 | 0.00 | 43 | 1015.5 |
| 20260902005435 | 91 | 150 | 1.7 | 4.3 | 0.00 | 0.00 | 0.00 | 43 | 1015.5 |
| 20260902004436 | 92 | 148 | 2.6 | 5.2 | 0.00 | 0.00 | 0.00 | 42 | 1015.4 |
| 20260902002435 | 94 | 166 | 6.1 | 9.6 | 0.00 | 0.00 | 0.00 | 39 | 1015.5 |
| 20260902001435 | 94 | 145 | 5.2 | 9.6 | 0.00 | 0.00 | 0.00 | 39 | 1015.5 |
| 20260902000436 | 95 | 168 | 5.2 | 9.6 | 0.00 | 0.00 | 0.00 | 38 | 1015.5 |
| 20260901235912 | 95 | 165 | 5.2 | 9.6 | 0.00 | 0.00 | 0.00 | 36 | 1015.5 |
| 20260901234435 | 96 | 179 | 6.1 | 10.4 | 0.00 | 0.00 | 0.00 | 35 | 1015.5 |
| 20260901233435 | 96 | 165 | 7.0 | 11.3 | 0.00 | 0.00 | 0.00 | 35 | 1015.5 |
| 20260901232435 | 97 | 159 | 5.2 | 8.7 | 0.00 | 0.00 | 0.00 | 34 | 1015.7 |
| 20260901231435 | 97 | 121 | 3.5 | 7.0 | 0.00 | 0.00 | 0.00 | 34 | 1015.7 |
| 20260901230435 | 97 | 101 | 3.5 | 7.0 | 0.00 | 0.00 | 0.00 | 33 | 1015.9 |
| 20260901225435 | 97 | 149 | 4.3 | 7.8 | 0.00 | 0.00 | 0.00 | 32 | 1015.9 |
| 20260901224435 | 98 | 117 | 5.2 | 8.7 | 0.00 | 0.00 | 0.00 | 32 | 1015.9 |
| 20260901223435 | 99 | 155 | 6.1 | 9.6 | 0.00 | 0.00 | 0.00 | 31 | 1015.7 |
| 20260901222435 | 99 | 155 | 5.2 | 9.6 | 0.00 | 0.00 | 0.00 | 30 | 1015.9 |
| 20260901221433 | 98 | 123 | 2.6 | 7.0 | 0.00 | 0.00 | 0.00 | 31 | 1015.6 |
| 20260901220432 | 99 | 144 | 3.5 | 7.8 | 0.00 | 0.00 | 0.00 | 30 | 1015.9 |
| 20260901215910 | 99 | 164 | 6.1 | 11.3 | 0.00 | 0.00 | 0.00 | 30 | 1015.7 |
| 20260901214433 | 98 | 134 | 1.7 | 4.3 | 0.00 | 0.00 | 0.00 | 32 | 1015.9 |
| 20260901212912 | 98 | 184 | 3.5 | 7.8 | 0.00 | 0.00 | 0.00 | 32 | 1016.2 |
| 20260901211430 | 98 | 201 | 6.1 | 11.3 | 0.00 | 0.00 | 0.00 | 32 | 1016.3 |
| 20260901210431 | 98 | 161 | 3.5 | 8.7 | 0.00 | 0.00 | 0.00 | 33 | 1016.4 |
| 20260901205430 | 99 | 142 | 5.2 | 9.6 | 0.00 | 0.00 | 0.00 | 32 | 1016.6 |
| 20260901203430 | 100 | 164 | 5.2 | 9.6 | 0.00 | 0.00 | 0.00 | 33 | 1016.6 |
| 20260901202429 | 99 | 207 | 3.5 | 13.0 | 0.00 | 0.00 | 0.00 | 33 | 1016.7 |
| 20260901201916 | 98 | 178 | 7.0 | 12.2 | 0.00 | 0.00 | 0.00 | 33 | 1017.0 |
| 20260901200431 | 98 | 153 | 4.3 | 10.4 | 0.00 | 0.00 | 0.00 | 36 | 1016.9 |
| 20260901195430 | 98 | 192 | 6.1 | 13.9 | 0.00 | 0.00 | 0.00 | 35 | 1017.1 |
| 20260901194429 | 98 | 103 | 2.6 | 9.6 | 0.00 | 0.00 | 0.00 | 35 | 1017.2 |
| 20260901193429 | 95 | 165 | 0.9 | 3.5 | 0.00 | 0.00 | 0.00 | 40 | 1017.2 |
| 20260901192427 | 94 | 129 | 1.7 | 4.3 | 0.00 | 0.00 | 0.00 | 40 | 1017.3 |
| 20260901191424 | 94 | 128 | 1.7 | 5.2 | 0.00 | 0.00 | 0.00 | 41 | 1017.5 |
| 20260901190424 | 94 | 115 | 1.7 | 6.1 | 0.00 | 0.00 | 0.00 | 41 | 1017.7 |
| 20260901185425 | 96 | 100 | 1.7 | 6.1 | 0.00 | 0.00 | 0.00 | 40 | 1017.7 |
| 20260901184423 | 96 | 165 | 4.3 | 9.6 | 0.00 | 0.00 | 0.00 | 40 | 1017.7 |
| 20260901183424 | 96 | 355 | 3.5 | 6.1 | 0.00 | 0.00 | 0.00 | 40 | 1017.9 |
| 20260901182419 | 95 | 194 | 2.6 | 7.0 | 0.00 | 0.00 | 0.00 | 43 | 1018.2 |
| 20260901181420 | 95 | 231 | 1.7 | 7.0 | 0.00 | 0.00 | 0.00 | 42 | 1018.3 |
| 20260901180902 | 95 | 186 | 2.6 | 7.8 | 0.00 | 0.00 | 0.00 | 41 | 1018.6 |
| 20260901175417 | 96 | 199 | 5.2 | 8.7 | 0.00 | 0.00 | 0.00 | 41 | 1018.8 |
| 20260901174418 | 94 | 202 | 3.5 | 8.7 | 0.00 | 0.00 | 0.00 | 44 | 1018.9 |
| 20260901173417 | 94 | 186 | 3.5 | 8.7 | 0.00 | 0.00 | 0.00 | 43 | 1019.1 |
| 20260901172906 | 93 | 126 | 5.2 | 10.4 | 0.00 | 0.00 | 0.00 | 45 | 1019.1 |
| 20260901171418 | 95 | 199 | 5.2 | 10.4 | 0.00 | 0.00 | 0.00 | 43 | 1019.2 |
| 20260901170422 | 94 | 199 | 3.5 | 7.8 | 0.00 | 0.00 | 0.00 | 45 | 1019.5 |
| 20260901165903 | 94 | 217 | 3.5 | 8.7 | 0.00 | 0.00 | 0.00 | 45 | 1019.5 |
| 20260901164417 | 93 | 232 | 4.3 | 7.8 | 0.00 | 0.00 | 0.00 | 46 | 1019.7 |
| 20260901163414 | 93 | 169 | 7.0 | 12.2 | 0.00 | 0.00 | 0.00 | 46 | 1019.7 |
| 20260901162413 | 93 | 190 | 6.1 | 9.6 | 0.00 | 0.00 | 0.00 | 48 | 1019.8 |
| 20260901161415 | 93 | 171 | 3.5 | 10.4 | 0.00 | 0.00 | 0.00 | 48 | 1019.8 |
| 20260901160413 | 92 | 188 | 5.2 | 8.7 | 0.00 | 0.00 | 0.00 | 51 | 1019.9 |
| 20260901155413 | 92 | 172 | 6.1 | 13.0 | 0.00 | 0.00 | 0.00 | 49 | 1020.0 |
| 20260901154413 | 91 | 173 | 4.3 | 8.7 | 0.00 | 0.00 | 0.00 | 50 | 1020.0 |
| 20260901153414 | 91 | 195 | 2.6 | 8.7 | 0.00 | 0.00 | 0.00 | 51 | 1020.0 |
| 20260901152413 | 90 | 225 | 4.3 | 8.7 | 0.00 | 0.00 | 0.00 | 53 | 1019.8 |
| 20260901151849 | 90 | 168 | 5.2 | 12.2 | 0.00 | 0.00 | 0.00 | 54 | 1019.9 |
| 20260901150415 | 89 | 194 | 6.1 | 11.3 | 0.00 | 0.00 | 0.00 | 54 | 1020.0 |
| 20260901145414 | 88 | 181 | 7.0 | 12.2 | 0.00 | 0.00 | 0.00 | 56 | 1019.8 |
| 20260901144413 | 88 | 216 | 6.1 | 11.3 | 0.00 | 0.00 | 0.00 | 57 | 1020.0 |
| 20260901143413 | 87 | 178 | 5.2 | 9.6 | 0.00 | 0.00 | 0.00 | 59 | 1019.9 |
| 20260901142413 | 86 | 207 | 4.3 | 9.6 | 0.00 | 0.00 | 0.00 | 59 | 1020.0 |
| 20260901141414 | 85 | 180 | 3.5 | 7.0 | 0.00 | 0.00 | 0.00 | 62 | 1019.9 |
| 20260901140415 | 84 | 173 | 3.5 | 7.0 | 0.00 | 0.00 | 0.00 | 63 | 1020.0 |
| 20260901135414 | 83 | 198 | 2.6 | 6.1 | 0.00 | 0.00 | 0.00 | 65 | 1019.9 |
| 20260901134416 | 82 | 205 | 1.7 | 4.3 | 0.00 | 0.00 | 0.00 | 67 | 1020.1 |
| 20260901133412 | 80 | 209 | 0.0 | 2.6 | 0.00 | 0.00 | 0.00 | 70 | 1020.1 |
| 20260901132415 | 78 | 157 | 0.0 | 0.0 | 0.00 | 0.00 | 0.00 | 72 | 1019.9 |
| 20260901131414 | 78 | 157 | 0.0 | 0.0 | 0.00 | 0.00 | 0.00 | 75 | 1019.8 |
| 20260901130413 | 78 | 157 | 0.0 | 0.0 | 0.00 | 0.00 | 0.00 | 75 | 1019.7 |
| 20260901125847 | 77 | 157 | 0.0 | 0.0 | 0.00 | 0.00 | 0.00 | 74 | 1019.7 |
| 20260901124415 | 77 | 126 | 0.0 | 0.0 | 0.00 | 0.00 | 0.00 | 75 | 1019.7 |
| 20260901123412 | 76 | 128 | 0.0 | 0.0 | 0.00 | 0.00 | 0.00 | 75 | 1019.4 |
| 20260901122413 | 76 | 179 | 0.0 | 0.9 | 0.00 | 0.00 | 0.00 | 74 | 1019.2 |
| 20260901121410 | 76 | 242 | 0.0 | 0.0 | 0.00 | 0.00 | 0.00 | 73 | 1019.1 |
| 20260901120410 | 77 | 242 | 0.0 | 0.0 | 0.00 | 0.00 | 0.00 | 72 | 1019.0 |
| 20260901115408 | 76 | 242 | 0.0 | 0.0 | 0.00 | 0.00 | 0.00 | 72 | 1019.0 |
| 20260901114408 | 77 | 242 | 0.0 | 0.0 | 0.00 | 0.00 | 0.00 | 71 | 1018.9 |
| 20260901113846 | 77 | 214 | 0.0 | 0.9 | 0.00 | 0.00 | 0.00 | 71 | 1018.8 |
| 20260901112406 | 77 | 196 | 0.0 | 1.7 | 0.00 | 0.00 | 0.00 | 71 | 1018.8 |
| 20260901111405 | 77 | 248 | 0.0 | 0.0 | 0.00 | 0.00 | 0.00 | 71 | 1018.8 |
| 20260901110405 | 77 | 186 | 0.0 | 0.0 | 0.00 | 0.00 | 0.00 | 70 | 1018.7 |
| 20260901105406 | 77 | 186 | 0.0 | 0.0 | 0.00 | 0.00 | 0.00 | 70 | 1018.6 |
| 20260901104839 | 78 | 242 | 0.0 | 0.0 | 0.00 | 0.00 | 0.00 | 69 | 1018.4 |
| 20260901103406 | 79 | 199 | 0.0 | 1.7 | 0.00 | 0.00 | 0.00 | 67 | 1018.6 |
| 20260901102844 | 79 | 178 | 0.0 | 1.7 | 0.00 | 0.00 | 0.00 | 67 | 1018.4 |
| 20260901101404 | 79 | 150 | 0.0 | 1.7 | 0.00 | 0.00 | 0.00 | 67 | 1018.3 |
| 20260901100404 | 78 | 159 | 0.0 | 0.9 | 0.00 | 0.00 | 0.00 | 68 | 1018.3 |
| 20260901095402 | 78 | 245 | 0.0 | 0.9 | 0.00 | 0.00 | 0.00 | 68 | 1018.3 |
| 20260901094402 | 78 | 245 | 0.0 | 0.0 | 0.00 | 0.00 | 0.00 | 68 | 1018.3 |
| 20260901093403 | 78 | 245 | 0.0 | 0.9 | 0.00 | 0.00 | 0.00 | 67 | 1018.3 |
| 20260901092840 | 79 | 245 | 0.0 | 0.0 | 0.00 | 0.00 | 0.00 | 67 | 1018.2 |
| 20260901090851 | 79 | 245 | 0.0 | 0.0 | 0.00 | 0.00 | 0.00 | 67 | 1018.2 |
| 20260901085400 | 79 | 245 | 0.0 | 0.0 | 0.00 | 0.00 | 0.00 | 67 | 1018.1 |
| 20260901083358 | 81 | 184 | 0.9 | 2.6 | 0.00 | 0.00 | 0.00 | 63 | 1018.0 |
| 20260901082355 | 81 | 158 | 1.7 | 2.6 | 0.00 | 0.00 | 0.00 | 63 | 1018.1 |
| 20260901081351 | 81 | 157 | 2.6 | 3.5 | 0.00 | 0.00 | 0.00 | 63 | 1017.9 |
| 20260901080350 | 81 | 161 | 1.7 | 3.5 | 0.00 | 0.00 | 0.00 | 63 | 1017.9 |
| 20260901075351 | 81 | 157 | 1.7 | 3.5 | 0.00 | 0.00 | 0.00 | 62 | 1018.0 |
| 20260901074349 | 80 | 146 | 0.9 | 3.5 | 0.00 | 0.00 | 0.00 | 62 | 1017.8 |
| 20260901073343 | 81 | 133 | 0.9 | 2.6 | 0.00 | 0.00 | 0.00 | 61 | 1017.9 |
| 20260901072346 | 81 | 166 | 0.9 | 2.6 | 0.00 | 0.00 | 0.00 | 60 | 1018.2 |
| 20260901071823 | 82 | 177 | 1.7 | 3.5 | 0.00 | 0.00 | 0.00 | 59 | 1018.0 |
| 20260901070339 | 81 | 182 | 1.7 | 3.5 | 0.00 | 0.00 | 0.00 | 59 | 1018.0 |
| 20260901065338 | 81 | 150 | 0.9 | 5.2 | 0.00 | 0.00 | 0.00 | 59 | 1017.9 |
| 20260901064340 | 80 | 151 | 0.9 | 1.7 | 0.00 | 0.00 | 0.00 | 60 | 1017.8 |
| 20260901063337 | 80 | 151 | 0.0 | 0.9 | 0.00 | 0.00 | 0.00 | 59 | 1017.8 |
| 20260901062815 | 80 | 151 | 0.9 | 1.7 | 0.00 | 0.00 | 0.00 | 59 | 1017.9 |
| 20260901061335 | 81 | 151 | 0.0 | 0.9 | 0.00 | 0.00 | 0.00 | 59 | 1017.8 |